Wind_Speed
20 22 22 23 22 20 18 17 18 19 19 20 21 21 21 22 23 23 23 23 23 22 22 23 23 23 23 23 23 23 22 21 21 22 22 22 23 24 25 27 27 29 30 30 30 30 31 31 30 29 28 27 27 26 24 23 22 21 20 19 18 18 18 18 19 19 19 19 19 19 19 20 21 22 23 24 25 25 25 26 29 32 33 33 33 35 38 40
21 22 23 23 23 22 20 18 18 19 20 20 21 21 21 21 23 23 23 23 23 22 22 23 23 23 23 24 24 23 22 22 22 23 22 22 23 25 25 26 27 28 29 30 29 29 30 31 31 31 30 29 28 27 27 26 25 24 23 22 21 21 20 20 21 21 21 21 21 21 21 21 21 22 23 24 25 26 25 25 26 27 29 32 34 36 37 40
21 22 23 24 24 24 22 20 19 20 20 20 21 21 21 21 22 23 23 23 23 23 22 22 23 23 24 24 25 24 23 22 23 23 22 22 23 24 25 26 26 27 28 29 29 29 29 30 31 31 30 29 28 28 28 28 28 27 26 25 24 24 23 22 22 22 21 21 21 22 22 22 22 22 24 25 24 26 26 26 27 27 28 31 34 36 37 39
21 22 23 24 24 25 24 21 20 20 21 20 21 21 21 21 22 23 23 23 23 23 23 22 23 23 24 24 25 25 24 23 24 24 23 22 23 24 25 26 26 27 28 29 29 29 30 31 31 31 30 29 28 28 28 28 29 29 29 28 27 27 25 25 23 22 22 21 22 22 22 23 23 23 24 25 24 25 28 29 30 31 31 32 33 33 36 38
21 22 23 24 24 25 25 23 22 21 21 20 21 21 21 21 22 22 23 23 23 23 23 23 23 23 23 24 25 25 25 24 24 24 24 23 23 24 25 25 26 27 27 28 29 30 30 31 31 32 31 30 29 28 28 29 29 30 30 30 30 29 28 27 26 24 24 23 23 24 25 25 25 25 26 26 24 25 29 32 32 33 34 34 33 33 33 35
21 22 23 24 24 25 26 25 23 22 21 20 20 21 21 21 21 22 23 23 23 23 24 23 23 23 23 24 25 25 25 24 24 24 24 23 23 24 25 25 26 27 27 28 28 29 30 30 31 32 31 31 30 28 28 28 29 30 31 31 31 31 30 29 28 26 26 25 24 25 27 28 27 27 28 28 27 26 28 31 32 33 34 35 34 33 33 34
22 23 23 24 25 25 26 26 24 23 22 21 20 21 21 21 21 22 23 23 24 23 23 24 23 23 24 24 24 24 24 24 24 24 25 24 23 24 25 26 26 27 27 27 28 28 29 30 30 31 31 31 30 29 29 28 29 30 32 32 32 32 32 32 31 30 28 27 26 25 27 29 30 29 30 31 30 28 28 29 30 31 32 33 34 34 35 35
23 23 24 25 25 25 26 27 26 25 23 22 20 20 21 21 21 22 23 23 24 24 24 24 24 24 24 24 24 24 24 24 24 25 25 24 24 24 25 26 26 27 27 27 27 28 29 30 30 31 31 31 31 30 30 29 28 29 31 32 32 33 34 34 34 33 32 31 28 26 27 30 32 31 31 32 31 30 29 29 29 30 31 32 33 35 36 37
24 24 25 25 26 26 26 27 27 26 25 23 21 20 20 21 21 21 22 23 23 24 24 24 24 24 24 24 24 24 24 24 24 25 25 25 24 25 25 26 26 27 27 27 27 28 29 29 30 31 31 31 31 31 31 29 28 28 28 31 32 33 35 36 36 36 35 34 33 30 29 31 34 32 32 33 33 32 31 30 30 30 31 32 33 35 37 38
24 25 25 26 27 26 27 28 28 27 26 24 22 20 20 20 21 21 22 23 23 24 24 24 25 24 25 24 24 24 24 24 24 25 25 25 25 25 25 26 27 27 27 27 27 28 28 28 29 30 31 31 31 31 30 30 29 28 28 30 32 33 35 36 37 38 38 38 37 35 32 33 36 36 34 35 34 33 33 33 33 31 31 32 33 34 36 37
25 26 26 27 28 27 27 28 28 28 27 25 22 20 20 21 21 21 23 23 23 23 24 24 25 25 25 25 24 24 24 24 24 24 25 25 25 25 25 26 27 27 26 27 27 27 28 28 29 30 31 31 31 30 30 30 29 29 29 31 32 34 36 37 38 39 40 41 41 40 36 33 38 39 38 38 37 36 35 36 36 35 34 33 34 35 36 38
26 27 27 28 29 29 27 27 28 28 28 26 23 21 20 21 21 21 23 24 24 23 24 24 25 25 25 25 25 24 24 24 24 24 25 25 25 25 25 26 26 27 26 27 27 27 27 27 28 29 30 30 30 30 30 30 31 30 31 32 34 35 37 39 39 39 39 41 42 43 38 31 35 40 41 42 41 39 38 38 40 40 40 38 37 37 36 38
28 28 28 29 30 30 28 27 28 29 28 26 23 21 20 21 21 22 23 24 24 23 24 24 25 25 25 25 25 25 24 23 24 24 24 25 26 26 26 26 26 27 27 27 27 27 27 27 27 28 29 30 30 30 30 31 31 31 31 33 34 34 36 39 40 39 38 39 39 42 38 30 33 38 41 43 42 41 41 41 42 43 44 44 43 41 39 39
29 29 29 30 31 31 29 27 28 29 29 26 23 21 21 21 22 22 23 25 24 24 24 24 25 26 26 25 25 25 24 23 24 25 24 24 25 26 27 27 27 27 27 27 27 27 27 27 27 27 29 30 30 30 30 31 32 32 32 34 35 34 36 39 41 39 37 37 37 38 36 32 34 37 39 41 42 42 42 43 45 46 47 48 48 47 45 43
31 31 30 30 31 32 30 28 28 29 29 27 24 22 21 22 22 22 23 25 25 24 24 24 25 26 26 25 25 25 24 24 24 25 25 24 25 26 26 26 27 28 28 28 28 28 27 27 27 27 29 29 29 30 31 31 32 33 34 35 37 37 38 40 41 40 36 36 36 37 36 34 37 39 40 43 44 45 45 46 48 49 50 51 52 53 52 50
33 32 32 31 32 33 32 29 28 29 29 28 26 23 22 22 22 23 24 25 25 25 24 24 25 26 26 26 25 25 24 24 24 25 25 25 26 26 26 27 28 28 28 28 28 28 27 28 28 28 29 29 29 30 31 31 32 34 36 37 39 40 41 42 41 39 36 34 35 38 38 38 41 41 43 45 47 48 49 49 51 52 53 54 55 55 56 55
34 34 33 33 32 33 33 30 29 29 30 29 27 24 22 22 23 23 24 25 25 25 25 25 25 26 26 26 26 25 24 25 24 25 25 26 26 27 26 27 28 28 28 28 28 28 28 28 28 28 29 29 29 30 31 31 32 34 36 38 39 41 43 44 41 39 36 35 37 40 41 43 44 44 44 46 48 49 51 52 53 53 54 56 57 58 58 58
36 35 35 34 33 34 34 32 29 29 30 30 28 25 23 23 23 24 24 25 25 25 25 25 26 27 27 27 26 25 24 25 24 25 25 26 27 27 27 27 28 28 28 28 28 28 28 29 29 29 30 29 29 29 31 32 33 35 37 39 40 41 43 45 43 39 36 36 39 41 41 43 45 46 46 47 48 49 50 51 51 51 51 52 53 55 57 58
37 37 36 35 35 35 35 34 30 29 30 30 29 27 25 23 23 24 24 25 25 26 25 25 26 27 28 28 27 25 25 25 25 25 26 26 27 27 28 28 28 28 28 28 28 29 29 29 29 29 30 30 29 30 31 33 35 36 38 40 42 43 43 44 43 40 39 39 40 40 41 44 45 45 46 46 47 48 48 49 49 49 47 46 45 45 48 52
38 38 37 37 36 36 37 35 32 30 31 31 30 29 26 24 23 24 25 25 25 26 26 26 26 27 28 28 27 27 25 25 25 25 26 26 26 27 28 28 28 28 28 28 28 29 30 30 29 29 30 30 30 30 30 33 35 36 38 40 43 45 43 42 41 41 42 41 39 40 42 45 46 45 45 44 45 46 47 48 47 47 46 43 39 34 35 40
39 39 39 38 38 38 38 37 34 31 32 32 31 30 28 25 24 24 25 25 25 26 26 27 27 27 28 28 27 27 26 25 25 25 26 27 26 27 28 29 29 29 28 29 29 30 31 30 30 30 30 31 31 31 30 32 35 36 38 40 43 45 44 41 40 42 45 43 40 41 43 46 47 44 43 44 45 45 47 48 47 47 45 43 37 28 26 30
41 41 40 39 38 39 39 39 36 33 33 32 32 31 29 27 26 26 26 26 26 26 27 27 27 27 28 28 28 27 27 26 25 25 26 27 27 27 28 29 30 30 29 29 29 29 30 30 30 30 30 31 31 31 30 31 34 36 38 41 43 45 46 40 38 42 47 45 42 42 44 45 46 44 42 43 44 45 46 48 49 49 45 42 37 28 23 25
42 42 42 40 39 40 40 40 38 34 33 33 32 32 31 29 28 27 27 27 26 26 27 27 27 28 29 28 28 28 27 26 26 26 27 27 27 27 28 29 30 30 30 29 29 29 30 30 30 30 30 31 31 31 31 30 33 36 38 41 43 45 46 42 39 42 46 47 45 45 45 44 43 43 42 43 44 44 45 46 47 49 47 42 38 30 23 24
43 43 43 41 40 41 41 42 40 36 34 34 33 33 32 31 29 29 29 28 26 25 27 28 27 28 29 29 29 28 27 26 27 28 27 27 27 28 28 28 29 30 30 30 29 29 29 30 29 30 30 30 31 31 31 31 32 35 38 41 43 44 44 43 42 44 45 47 47 46 46 44 41 41 41 41 43 44 43 43 43 46 47 43 39 33 26 23
44 44 44 42 41 41 42 44 41 37 36 35 34 34 33 32 31 31 30 31 27 25 27 28 28 29 29 30 29 27 27 27 27 28 28 28 27 28 28 29 29 29 30 30 30 29 29 30 29 29 30 30 31 32 31 32 32 33 37 40 43 44 42 42 44 46 46 47 48 47 48 46 39 39 40 39 41 42 41 40 40 41 43 43 39 35 30 24
46 45 45 44 43 43 44 44 42 39 37 36 35 35 34 33 33 32 32 34 29 24 27 29 28 29 29 29 29 28 27 27 28 28 28 28 28 28 28 28 29 29 30 30 30 29 28 29 29 29 30 29 31 32 31 32 32 33 36 39 42 43 42 41 44 46 46 47 48 48 50 48 39 36 39 38 38 39 38 37 36 36 39 40 38 35 33 28
47 47 46 45 45 44 45 44 43 40 38 37 37 36 35 35 35 34 34 36 31 24 26 28 27 28 28 28 28 29 28 27 28 28 28 28 28 27 27 28 29 29 30 30 30 29 28 30 29 28 29 29 30 32 31 31 33 34 36 39 42 43 41 41 43 45 45 46 48 48 49 48 42 38 38 37 37 37 37 36 33 33 36 39 39 37 34 31
49 48 48 47 47 46 46 45 44 42 39 39 38 37 36 36 37 36 37 38 32 25 25 25 26 28 27 28 29 29 29 28 28 27 28 28 28 28 27 28 28 28 29 31 31 30 28 29 29 28 29 29 31 31 31 31 32 34 36 39 41 42 41 40 42 43 43 45 47 47 48 47 43 38 37 37 37 37 36 35 34 33 34 38 41 41 37 33
51 50 49 49 48 48 47 46 45 43 41 40 40 39 38 37 38 38 40 39 32 27 26 25 27 28 28 29 30 30 29 28 28 28 28 28 28 28 28 28 28 28 28 29 31 31 29 29 29 28 28 29 31 31 31 31 32 34 36 38 40 42 40 40 42 42 42 45 46 46 47 47 42 37 36 36 35 35 37 37 36 35 34 35 37 41 40 36
53 52 51 50 50 50 48 47 46 45 44 42 41 40 39 39 40 42 43 38 32 30 29 27 27 28 28 29 30 30 30 28 29 29 29 28 28 29 29 29 28 27 28 28 30 31 30 30 30 29 28 29 31 31 31 31 32 34 36 38 39 41 40 38 41 41 41 45 46 45 47 46 42 38 36 35 35 36 39 40 38 36 35 33 34 36 39 37
55 53 52 52 52 51 50 49 48 47 46 44 43 42 41 41 43 46 43 35 32 33 30 28 29 29 29 30 30 30 30 29 29 30 29 29 29 29 30 30 29 27 27 27 28 30 30 30 30 29 28 29 30 30 30 30 31 33 36 38 40 41 40 39 41 41 40 43 45 45 45 44 41 39 37 36 37 39 41 41 39 36 36 36 34 33 34 35
57 55 54 54 54 53 52 51 49 49 48 45 44 44 43 45 48 47 40 33 34 35 31 29 30 30 29 30 30 30 31 31 30 30 30 29 29 30 30 30 30 29 27 26 26 27 29 29 30 29 28 29 30 29 28 29 30 32 35 38 40 42 43 41 41 41 39 40 43 45 45 43 41 41 40 39 39 39 41 41 40 40 41 39 34 33 34 34
59 58 56 55 55 55 54 52 51 50 49 47 46 45 46 50 51 44 37 34 35 36 33 32 32 31 31 31 31 31 32 31 30 30 30 30 29 30 30 30 31 30 29 27 26 25 26 28 28 28 27 28 29 28 27 28 30 32 35 38 41 44 45 44 43 43 40 37 39 42 44 43 42 43 43 42 41 41 42 42 43 46 47 40 35 35 36 36
61 60 58 57 56 57 55 53 52 52 51 49 48 47 50 53 49 41 37 36 36 36 35 35 35 34 33 33 32 32 33 32 31 31 31 30 30 30 30 30 30 30 29 29 28 25 25 28 29 29 28 28 28 28 28 28 30 32 35 37 40 42 43 43 44 44 42 38 37 39 42 43 43 43 43 41 41 42 43 45 49 51 47 42 40 37 36 38
63 62 61 59 58 58 57 55 54 53 53 51 50 51 53 52 46 39 38 37 37 38 36 36 37 36 35 34 32 32 33 33 32 31 31 30 30 30 30 30 30 30 29 29 29 26 25 27 29 30 29 28 28 28 28 28 29 31 34 36 38 40 41 41 42 43 42 38 36 37 39 40 41 42 42 41 41 42 43 47 52 52 46 44 45 40 36 39
66 64 62 61 60 59 59 57 55 55 54 53 53 53 52 49 44 41 40 38 39 39 37 37 38 37 36 35 33 32 33 34 33 32 31 30 30 30 30 30 30 30 29 29 29 28 25 26 29 30 30 28 28 29 28 27 28 30 33 35 36 39 41 40 40 40 40 38 37 37 37 36 36 37 39 41 41 42 45 50 53 52 47 46 50 46 38 38
68 66 64 62 61 61 61 59 57 56 55 55 55 54 51 48 45 43 41 40 40 40 39 39 38 38 38 36 33 32 33 34 34 33 31 30 30 31 30 30 30 30 30 29 29 28 26 25 28 31 31 29 28 29 28 27 27 29 31 33 35 38 39 40 40 39 38 36 36 37 38 37 36 37 40 41 41 43 48 51 52 52 49 48 53 51 41 38
70 69 66 64 64 63 62 60 59 58 57 57 57 55 51 49 46 43 42 42 42 42 42 40 39 39 38 37 35 34 34 35 34 34 32 31 31 31 31 30 30 30 30 30 29 29 27 25 26 29 31 29 28 28 28 27 26 27 29 32 34 37 39 39 40 40 39 36 36 37 40 41 40 40 43 44 44 46 49 51 52 53 50 51 56 53 44 35
73 71 69 67 66 65 65 63 60 60 60 61 59 54 51 48 45 43 43 44 44 45 44 41 40 40 39 37 37 36 36 36 34 34 33 31 30 32 31 31 30 30 29 30 30 29 28 26 25 29 31 29 28 28 28 27 26 26 28 30 32 35 37 38 38 40 40 38 37 38 40 42 41 41 43 46 47 48 49 51 53 54 52 56 60 53 38 25
75 74 72 70 69 68 67 65 62 62 63 62 59 55 52 49 46 44 44 45 46 47 45 43 41 41 39 39 39 37 37 37 35 34 34 31 31 32 32 31 31 30 29 30 31 30 28 26 26 28 30 29 28 27 27 27 27 26 27 29 31 33 35 36 35 37 40 40 39 40 42 43 43 43 43 46 49 49 49 50 52 53 55 59 62 50 31 20
77 76 74 73 72 70 68 66 65 64 64 63 61 57 54 50 47 46 46 46 47 48 47 45 42 41 40 40 40 39 38 38 36 35 34 31 31 33 33 32 31 31 30 30 31 30 29 27 25 27 29 29 28 27 27 27 27 26 26 28 30 31 33 35 34 35 37 39 39 40 42 43 44 45 45 46 48 47 47 49 50 52 55 60 60 47 27 19
80 78 76 75 74 72 70 68 66 66 67 66 63 59 55 51 49 48 47 47 48 49 49 47 44 42 41 41 40 39 40 39 37 35 34 31 31 33 34 33 32 31 31 31 31 31 30 28 26 26 28 29 27 26 27 27 26 26 25 26 28 29 31 33 34 34 35 38 38 38 40 42 44 46 46 47 48 45 45 46 48 51 54 58 58 44 27 20
82 80 78 78 77 75 73 71 69 69 70 68 64 60 57 55 52 50 49 48 48 50 51 49 46 43 42 41 41 40 41 40 38 36 34 32 31 33 34 33 32 32 31 31 31 30 30 29 27 26 26 27 27 25 25 26 26 25 24 24 26 28 29 31 33 33 33 36 37 36 38 40 42 44 45 47 48 44 42 43 45 49 52 56 55 43 29 20
83 82 81 80 80 79 77 73 71 71 70 68 65 62 59 57 54 51 50 49 49 51 52 50 47 44 43 42 41 41 41 41 39 36 35 32 31 33 34 33 32 32 31 31 31 30 29 29 29 28 26 25 25 24 24 25 25 24 23 23 24 26 28 30 31 31 31 34 36 36 36 37 40 42 44 46 45 41 40 42 44 47 50 53 54 46 32 21
85 84 83 83 82 82 80 76 73 73 71 69 67 63 61 59 55 53 51 50 50 52 53 51 48 45 44 43 42 42 41 40 40 38 35 33 32 34 34 33 32 32 32 32 32 31 29 29 29 30 29 27 25 23 22 23 23 23 23 23 23 25 27 29 30 31 30 31 34 36 34 34 37 39 39 39 38 36 38 41 43 45 48 53 53 48 38 25
87 88 86 86 85 84 83 79 77 75 73 71 69 65 63 60 56 54 53 53 53 53 53 52 49 47 46 44 42 41 41 41 41 40 37 34 34 35 34 33 33 32 32 32 32 31 30 28 28 30 30 30 29 26 22 21 22 23 23 23 23 24 25 28 29 30 30 29 31 34 33 32 34 35 34 34 33 33 35 39 42 43 45 51 52 48 43 32
81 90 90 88 88 87 84 81 80 78 75 73 70 65 62 59 57 56 56 56 55 54 54 53 51 49 46 43 41 41 42 42 42 41 38 35 36 37 34 33 33 32 32 33 32 32 31 28 28 29 29 30 30 29 25 22 21 22 22 22 23 23 24 26 27 28 29 29 29 31 32 31 32 33 32 32 32 32 33 36 40 42 43 47 49 47 45 38
69 82 88 89 88 86 83 81 79 78 75 72 68 64 61 60 59 58 57 57 55 54 54 54 52 49 45 42 41 42 43 44 43 40 38 38 40 38 35 33 32 32 32 33 32 32 32 29 27 28 29 30 31 30 27 24 21 21 22 21 22 22 22 24 26 26 27 28 28 29 30 29 29 30 30 30 31 32 33 34 37 39 41 43 43 44 43 39
61 68 78 86 88 85 83 81 79 77 74 70 68 65 62 60 60 59 58 58 56 54 54 54 51 48 44 41 42 44 45 45 43 40 39 42 43 39 35 34 33 32 32 33 32 32 32 30 28 28 28 28 31 31 28 24 20 20 21 20 20 21 21 22 24 25 25 27 27 27 29 29 28 28 27 27 29 31 32 33 33 35 39 40 38 38 40 39
60 59 64 76 84 84 83 82 81 79 76 73 70 66 63 63 63 62 60 58 56 53 52 53 50 45 42 42 44 47 46 45 44 43 43 45 43 38 36 36 34 32 33 33 32 32 33 31 29 29 28 26 29 31 30 26 21 18 21 21 20 21 21 20 22 23 24 25 26 25 26 27 27 26 25 25 27 29 30 31 31 32 35 37 36 33 33 35
60 58 57 64 74 80 81 80 80 79 76 74 69 64 63 64 63 63 61 58 55 54 52 51 48 44 44 46 47 47 46 46 47 47 47 46 42 39 38 38 35 34 34 33 32 32 34 33 31 31 29 25 26 30 31 29 23 18 20 21 20 21 21 20 20 22 23 23 24 24 24 25 25 24 22 22 24 26 28 29 29 30 32 34 34 32 29 27
61 60 59 60 66 75 80 80 80 80 77 72 68 65 64 63 62 62 61 58 57 57 54 51 49 48 48 48 47 47 48 48 50 50 49 47 43 40 40 39 36 36 35 33 33 33 34 34 33 33 31 26 25 29 31 30 24 20 21 21 19 20 21 19 18 19 21 22 22 23 23 23 23 23 21 20 21 23 25 26 26 27 29 30 30 31 29 26
Wind_Direction
316 320 324 327 330 330 326 320 315 315 316 314 313 316 319 321 322 325 330 330 329 329 328 328 330 333 336 338 340 341 342 342 343 341 340 340 338 336 337 338 339 342 345 347 347 345 347 347 347 347 346 343 340 338 336 334 330 327 324 320 317 316 315 315 316 318 316 314 311 308 305 301 297 294 291 289 286 284 280 274 267 263 260 255 250 245 242 241
313 317 320 324 326 327 325 319 314 313 314 313 310 312 315 318 319 322 326 328 328 328 327 326 328 331 334 336 337 339 341 342 344 340 338 340 339 338 337 337 337 340 343 344 345 344 344 345 345 345 345 344 341 339 337 336 333 331 328 325 321 318 316 315 314 315 315 314 313 310 307 302 297 295 292 288 287 286 284 282 276 269 265 258 252 247 244 242
309 314 317 320 323 325 323 318 314 312 313 311 307 308 312 314 316 320 323 326 326 326 327 325 326 329 332 334 334 336 338 342 344 340 339 341 340 338 337 336 335 338 340 341 342 341 341 342 343 344 345 344 341 340 338 336 335 333 331 328 324 321 319 316 314 313 312 312 312 311 309 305 300 296 293 289 287 287 285 280 275 269 264 259 254 249 245 243
304 310 313 316 319 322 322 318 313 312 312 309 305 304 308 311 313 316 320 323 324 324 325 326 326 327 330 333 333 335 336 340 344 341 340 340 339 339 338 336 334 336 338 340 341 340 340 340 342 343 344 344 342 341 338 337 336 335 333 330 327 324 320 318 315 314 311 309 311 311 310 308 305 302 297 292 289 287 282 275 272 271 267 264 260 255 248 244
297 303 308 312 315 318 320 317 313 312 311 307 303 301 304 308 310 313 317 321 322 322 324 326 325 325 327 330 332 333 335 339 343 341 340 340 340 340 338 337 335 335 337 340 341 339 339 340 341 342 343 343 342 341 339 338 337 335 333 331 327 324 321 319 316 316 314 312 312 313 312 309 309 308 303 299 295 289 283 279 278 277 275 273 269 263 257 249
292 298 304 308 311 315 317 316 312 310 310 306 301 298 300 304 307 310 315 318 320 321 323 325 325 324 325 328 330 331 333 337 341 340 340 341 341 340 339 338 336 335 336 339 339 338 337 338 340 340 341 342 341 341 340 339 338 335 333 330 328 324 322 319 316 315 314 312 314 314 313 309 308 309 308 305 301 298 293 289 286 281 279 277 275 270 263 257
288 293 299 304 307 311 315 315 311 309 309 306 299 294 296 301 304 307 311 316 318 319 322 324 324 323 323 325 327 329 332 335 338 338 339 341 342 342 339 337 336 334 335 337 337 336 335 335 337 337 338 339 339 340 341 340 340 336 332 330 329 326 323 320 316 314 311 309 311 313 311 307 305 306 306 305 305 304 302 297 292 286 280 275 272 269 263 258
285 289 294 299 303 307 311 313 310 308 308 306 298 291 291 297 301 304 308 312 316 317 320 322 323 323 322 324 325 326 330 333 336 337 338 340 343 342 340 337 335 334 334 334 334 334 334 333 334 336 337 337 338 341 342 342 341 338 333 331 331 328 325 323 319 315 312 308 307 309 308 305 302 302 303 302 303 304 302 299 295 290 284 276 269 264 260 256
282 287 290 294 298 303 308 310 309 307 307 305 297 288 288 294 299 301 305 309 313 316 319 321 321 322 321 322 324 325 327 332 335 336 336 339 341 341 340 338 336 335 333 333 334 334 333 333 333 335 335 335 338 341 343 344 344 341 337 334 334 331 327 326 322 318 314 309 306 306 306 305 301 300 300 297 297 299 299 298 296 292 288 281 273 266 261 257
278 283 287 290 294 299 305 307 308 306 305 304 297 287 284 291 296 299 301 305 310 314 316 318 319 320 320 321 323 323 325 329 332 334 335 337 339 340 340 339 337 335 332 331 333 333 333 332 332 334 334 334 337 340 343 345 345 344 342 338 336 334 330 329 326 322 318 313 309 306 305 304 301 300 299 294 291 292 294 296 294 292 289 284 278 272 266 261
274 280 283 286 290 296 302 305 306 305 303 302 296 286 282 287 293 296 299 302 307 312 314 316 317 319 319 320 321 322 323 327 329 331 334 336 337 338 339 339 337 335 332 331 332 332 332 332 331 333 333 333 335 339 343 344 345 346 345 341 339 337 333 332 330 327 322 317 313 308 305 305 301 299 297 292 288 287 289 292 292 290 288 285 281 275 269 264
270 276 280 283 287 293 299 302 303 303 301 299 294 285 279 283 290 294 296 299 304 309 312 313 315 317 318 318 319 320 322 325 327 329 332 334 335 336 337 338 337 335 333 331 331 332 332 332 331 332 332 331 333 338 342 343 343 346 346 343 342 341 336 335 332 329 325 319 315 310 309 309 302 298 295 291 290 288 287 288 290 289 287 284 282 278 273 267
268 272 277 281 284 289 296 300 301 301 299 296 292 284 278 280 286 292 294 296 301 306 310 311 313 315 316 317 318 319 320 323 326 327 330 332 333 334 335 337 337 336 334 331 330 330 331 331 330 331 331 331 333 336 339 341 342 343 345 343 343 343 338 335 333 330 326 320 317 312 313 315 305 298 295 293 293 292 290 289 288 287 286 284 281 278 274 269
265 269 273 277 281 286 293 297 297 298 297 293 289 284 278 277 283 289 292 294 298 303 307 309 311 313 314 316 316 317 319 322 324 325 327 330 331 333 334 335 336 335 334 332 330 329 330 330 328 329 330 330 331 333 336 340 340 341 344 342 342 343 339 336 334 333 328 323 320 316 317 319 309 302 299 298 297 295 293 290 287 285 284 283 280 277 273 269
264 266 269 273 277 282 289 293 293 296 296 292 287 284 278 276 280 287 290 292 295 300 304 307 309 310 312 314 315 316 318 321 323 323 325 328 330 331 332 333 334 335 335 333 330 327 327 328 328 328 330 330 330 332 334 337 339 339 342 342 342 343 340 337 335 334 331 328 324 321 322 320 311 307 306 303 300 297 295 292 289 286 284 281 278 275 272 268
263 264 266 270 274 279 284 289 290 293 295 291 286 283 279 276 279 284 288 290 293 297 301 305 307 308 310 312 313 315 317 320 321 322 323 326 328 330 331 332 333 333 334 333 330 327 326 326 326 327 329 330 330 331 332 336 339 339 341 343 343 342 340 338 336 334 333 332 327 323 323 319 313 312 310 306 303 301 299 297 293 290 286 282 278 274 271 268
262 262 264 267 270 275 280 285 287 289 292 290 285 282 280 277 277 282 285 287 290 294 298 302 305 306 308 310 312 313 315 318 319 320 321 324 327 329 330 331 332 332 332 331 330 328 326 324 324 326 329 330 329 330 330 332 335 338 340 342 343 342 340 338 337 336 336 335 329 325 324 321 318 318 314 309 306 305 304 303 301 298 293 288 281 276 270 266
260 261 262 265 267 272 277 283 284 286 290 289 284 281 279 277 277 279 283 285 287 291 295 299 302 304 306 307 309 312 314 316 317 318 320 324 326 327 329 330 330 331 330 330 330 329 325 322 322 325 328 329 328 329 329 330 333 336 339 341 343 343 342 339 339 338 338 337 331 327 326 323 322 322 316 312 311 311 312 311 309 307 304 298 289 280 273 267
257 259 261 262 265 269 275 280 283 283 287 288 283 279 278 277 277 278 281 283 285 288 291 295 298 301 304 305 308 310 313 314 316 317 318 323 325 326 327 328 329 329 329 329 330 329 325 322 322 325 328 328 328 329 330 332 335 338 341 343 342 343 344 341 339 338 337 337 332 329 328 324 324 322 315 314 316 317 318 316 315 314 315 312 301 289 280 272
257 258 260 261 263 267 272 278 281 281 283 286 282 277 276 277 277 277 280 282 283 285 288 292 296 298 300 303 306 309 311 313 314 315 317 321 323 324 326 327 327 327 328 329 330 329 326 324 323 324 327 328 327 328 332 334 336 339 343 344 342 343 346 343 339 337 335 337 334 330 330 326 324 321 315 317 320 320 320 319 320 320 322 324 315 300 289 282
256 258 259 259 261 265 270 275 279 279 280 283 281 276 276 277 277 278 278 280 281 283 286 289 293 296 298 301 304 307 310 311 312 313 315 319 321 323 325 325 326 326 328 328 328 329 328 325 324 324 327 328 326 328 333 335 336 341 343 344 343 342 346 345 339 336 334 335 334 333 333 327 324 321 317 319 321 320 321 323 325 325 325 328 323 307 296 296
256 258 258 258 259 263 268 272 276 277 277 280 280 276 274 275 277 278 278 279 280 282 284 287 291 294 296 299 302 305 307 309 310 311 314 317 319 322 324 324 325 325 326 327 328 330 329 326 324 324 325 326 326 327 333 337 338 341 344 344 344 343 345 345 340 337 334 334 335 335 335 329 324 321 319 320 320 321 324 328 329 328 327 328 328 316 302 303
256 257 257 257 258 261 266 270 274 275 276 278 278 275 273 274 276 277 278 277 278 281 283 285 289 292 294 296 300 303 305 307 309 310 313 316 318 321 323 323 323 324 325 326 328 330 329 326 324 323 325 326 326 328 333 339 340 342 344 345 345 345 344 343 342 339 335 335 336 336 337 334 326 322 322 321 321 322 326 329 329 327 327 328 329 325 312 302
255 255 256 256 257 259 264 268 271 273 274 275 276 275 273 273 275 276 278 277 276 279 281 283 287 289 291 294 297 300 303 306 308 309 312 314 317 319 321 322 323 323 324 324 327 330 329 326 324 323 324 325 326 329 333 339 342 343 345 345 346 347 344 341 341 341 338 335 335 337 338 337 329 323 325 323 322 323 324 326 328 326 327 330 330 327 321 306
253 253 255 255 255 258 262 267 269 271 272 273 274 274 272 273 274 275 278 277 276 278 280 283 285 286 289 292 295 297 300 304 306 308 310 312 314 317 320 321 322 322 323 323 325 329 329 326 324 322 323 325 325 329 334 339 343 345 345 345 347 348 345 341 341 342 340 335 335 338 339 343 338 327 327 326 324 324 321 322 325 324 325 331 332 327 323 314
251 251 253 253 254 257 261 265 267 268 270 271 271 271 271 272 272 274 277 277 277 279 279 280 283 285 288 291 292 294 298 302 305 307 309 310 312 315 318 319 320 321 321 322 324 327 328 325 324 322 322 324 326 329 335 339 343 345 345 346 347 348 346 343 343 343 340 337 338 339 339 345 345 331 328 328 325 324 322 322 324 322 322 327 331 329 325 318
248 249 251 252 253 256 261 263 264 266 268 269 269 269 270 272 272 273 275 277 279 280 278 279 282 283 286 289 290 293 297 300 303 306 307 308 310 312 315 317 319 321 321 321 322 325 327 325 323 323 322 324 326 330 336 339 343 345 346 347 348 349 348 345 345 344 341 338 340 340 339 344 345 335 330 329 326 325 325 325 323 319 319 321 325 326 326 322
247 248 250 251 253 256 260 261 262 264 266 267 268 268 269 270 271 272 272 274 279 282 279 280 281 281 284 287 288 291 294 298 301 303 305 307 308 310 313 316 318 320 320 321 321 323 326 325 323 323 322 324 327 331 336 339 342 345 346 348 349 350 349 347 347 346 342 339 341 342 341 344 346 341 335 332 331 331 331 333 330 323 320 318 318 318 320 321
246 247 249 251 252 256 259 259 260 262 264 266 266 266 268 269 269 270 268 271 281 285 281 281 279 279 283 285 287 290 292 296 298 300 304 306 307 309 312 315 317 319 319 320 321 322 325 325 324 323 323 324 327 331 336 339 342 345 347 349 350 350 350 349 349 348 344 341 343 345 343 345 351 348 340 338 339 338 338 340 338 331 325 317 312 311 311 314
245 246 248 250 252 254 258 258 258 260 262 264 264 264 266 267 267 266 265 271 282 284 281 280 278 278 281 283 286 288 290 293 296 299 304 306 307 308 310 313 315 317 319 320 321 321 323 325 324 324 324 324 326 331 335 338 341 344 347 349 350 351 351 350 351 351 347 343 344 347 345 348 353 352 346 343 343 341 340 341 339 336 332 322 310 305 304 305
243 245 247 249 251 254 257 257 256 258 261 262 263 263 263 265 265 263 266 275 281 280 280 280 277 276 278 281 284 286 288 292 295 298 302 305 307 307 308 311 313 316 319 320 321 321 322 324 324 324 324 324 325 329 334 338 341 344 346 349 350 350 351 352 353 354 352 346 345 347 347 349 351 350 347 345 342 340 340 340 338 338 337 330 317 307 304 304
243 244 246 248 251 254 256 256 255 256 258 261 261 261 262 263 262 263 269 275 276 277 280 278 275 275 276 279 282 284 287 291 294 297 301 303 306 306 307 310 313 316 318 319 320 320 320 321 322 323 323 322 323 327 331 336 340 344 346 348 349 349 351 353 354 357 356 350 346 346 346 347 348 345 342 343 343 342 342 341 339 338 337 334 323 310 305 304
241 243 245 247 250 253 255 256 255 255 256 258 260 260 260 261 262 266 270 271 272 277 279 276 274 273 273 276 280 282 286 289 292 295 298 302 304 306 307 309 311 314 316 317 319 320 319 319 320 322 321 320 322 326 332 336 341 345 347 348 349 350 353 354 355 358 359 355 349 345 345 346 346 343 341 345 347 345 345 343 340 338 337 337 329 313 305 303
241 242 244 247 249 252 254 256 257 255 254 256 258 258 259 260 264 268 269 268 270 274 276 276 274 271 271 274 277 281 284 287 290 293 296 300 303 305 306 307 309 311 314 316 317 321 321 319 321 322 321 321 322 326 333 337 341 345 346 349 351 352 354 354 354 356 359 360 354 347 345 345 347 346 346 349 349 346 348 347 343 339 337 338 335 322 311 309
241 242 244 246 247 250 252 255 257 254 252 253 255 257 259 262 266 267 267 268 268 270 273 274 273 271 270 271 274 278 282 284 287 290 294 297 300 303 304 306 308 310 312 314 315 320 322 320 321 321 321 321 321 326 333 337 342 345 346 350 352 353 354 354 355 356 358 1 358 350 348 349 350 350 350 352 351 350 351 349 345 342 339 340 341 333 318 312
241 242 244 245 246 248 250 253 255 253 250 251 253 257 262 264 265 264 265 266 266 267 270 271 272 272 270 270 273 276 279 282 285 288 292 295 298 301 303 304 306 308 311 312 313 317 321 320 320 319 320 321 321 325 332 337 341 344 346 349 352 353 353 353 355 357 358 360 360 353 349 353 353 349 350 352 354 352 350 350 347 343 341 342 344 341 326 311
240 242 243 244 245 247 249 251 253 251 250 250 253 259 263 262 262 262 262 264 265 266 268 270 271 271 270 269 271 274 276 279 283 286 290 293 297 300 301 302 304 306 309 310 311 315 318 321 320 318 318 320 320 323 329 336 341 344 346 349 351 353 353 353 354 357 358 359 0 354 348 351 351 348 351 353 353 352 350 352 350 343 341 342 345 344 331 315
239 241 242 243 243 245 247 250 251 250 249 250 253 258 261 261 260 260 261 263 264 265 266 269 271 270 268 268 269 271 274 277 281 285 287 291 295 298 299 301 302 304 306 307 309 312 315 319 319 316 316 318 318 320 326 335 340 343 345 349 351 353 355 354 353 354 356 357 0 356 350 350 350 351 354 354 354 355 353 353 352 347 344 345 347 346 335 327
238 240 241 242 243 244 246 248 249 247 248 251 255 259 262 261 260 260 261 262 263 264 266 268 269 268 267 266 267 269 272 275 278 282 284 289 293 295 297 299 300 301 303 304 306 309 313 318 319 315 314 316 316 317 323 332 338 343 346 349 351 352 355 356 353 352 353 353 356 356 352 353 353 352 355 355 355 358 356 355 354 352 349 348 350 349 342 344
237 239 240 241 242 244 246 247 247 246 249 253 257 259 260 259 258 259 259 260 262 263 265 265 266 267 265 264 265 267 270 273 275 278 281 286 291 292 294 297 297 299 301 302 304 307 311 315 317 315 313 314 315 316 320 329 336 342 346 348 350 352 354 356 354 352 352 350 351 352 351 353 354 351 353 355 355 358 358 356 355 355 353 351 353 355 355 4
236 237 238 240 241 243 245 246 246 247 251 255 256 257 258 257 257 257 257 258 261 262 263 264 264 265 264 263 264 266 267 270 272 275 279 284 288 290 292 295 295 296 298 300 302 306 309 313 315 314 312 313 314 314 318 325 333 340 345 346 348 351 353 355 355 353 352 350 350 351 349 351 354 351 351 353 353 355 358 355 356 358 356 354 357 3 9 15
235 236 237 239 241 242 244 244 246 248 251 253 254 255 256 256 255 255 256 257 259 261 262 263 262 263 263 262 263 264 266 268 270 273 277 281 284 287 289 293 294 295 297 298 300 303 306 311 314 313 312 312 312 313 315 320 328 337 343 344 345 348 352 355 355 354 354 350 350 352 350 350 353 351 350 350 349 353 358 356 357 2 1 357 1 9 18 22
236 236 237 238 239 240 241 243 244 247 249 251 252 252 253 254 253 254 255 255 257 259 260 261 261 261 262 261 262 263 264 266 269 272 275 278 281 284 287 290 292 293 295 296 298 301 304 308 310 311 312 311 310 311 313 316 323 331 338 342 344 346 351 355 355 354 355 351 350 353 353 351 353 353 352 351 351 356 2 1 3 8 7 3 6 16 25 32
235 237 237 237 239 239 240 242 244 247 249 250 250 251 252 253 253 254 255 255 256 258 258 259 259 260 260 260 260 261 262 266 269 270 273 276 279 281 284 287 289 291 293 294 296 298 302 306 308 309 310 308 306 307 309 311 317 326 333 339 343 345 348 354 355 354 355 353 350 353 355 354 354 356 356 354 355 2 8 8 11 15 14 10 13 21 29 39
233 234 236 237 238 239 240 242 244 245 246 247 247 248 250 251 252 253 255 255 255 256 256 257 258 259 259 259 259 260 262 264 267 268 270 273 276 277 281 284 286 288 291 292 293 296 299 304 307 308 310 309 305 304 304 305 311 320 329 337 341 344 347 350 354 353 354 354 351 352 356 357 356 359 0 357 358 6 9 11 17 22 22 19 20 26 32 41
233 233 234 236 237 238 239 240 241 243 244 244 244 245 247 248 250 251 253 253 253 253 254 255 256 257 258 258 259 260 261 262 264 267 268 271 273 274 278 281 282 286 289 290 291 293 296 301 304 305 308 309 308 307 306 306 308 316 326 334 338 344 346 347 351 352 353 354 352 352 355 357 358 2 5 360 359 6 10 14 22 27 28 26 26 32 37 45
233 234 235 236 237 238 239 239 240 241 241 241 242 244 246 248 249 250 252 253 253 252 252 253 254 255 257 258 259 259 259 260 261 264 267 270 271 272 275 277 280 284 286 288 289 291 293 298 301 302 304 306 306 307 307 306 307 312 322 331 335 341 345 345 347 350 352 352 352 353 354 356 357 2 7 3 360 6 13 19 26 31 33 31 32 37 43 50
234 236 236 237 238 238 239 240 241 241 241 241 243 244 246 247 248 249 251 252 252 251 251 253 255 256 257 257 257 257 257 258 260 262 266 267 267 269 272 275 278 282 284 285 287 288 290 294 297 298 301 304 304 305 305 305 304 308 316 326 331 335 342 343 343 348 351 351 351 353 354 355 356 1 5 3 1 6 15 23 31 36 37 34 34 40 48 55
235 237 237 237 238 238 238 238 238 238 238 240 241 242 244 247 248 249 250 251 251 249 249 253 255 254 254 255 256 255 255 256 258 260 262 262 264 267 271 273 275 278 281 283 285 286 288 290 294 294 296 301 302 302 303 302 301 303 310 319 326 330 337 340 340 344 349 350 350 353 355 353 353 0 5 2 1 6 14 24 34 40 40 38 37 41 49 57
237 238 239 239 238 238 237 236 235 235 235 236 237 239 242 245 245 246 247 250 251 250 249 252 254 253 253 254 253 252 253 255 257 257 258 259 262 266 269 270 273 276 278 281 284 285 285 287 290 290 292 297 299 299 300 300 300 301 303 311 321 325 330 336 338 340 345 349 350 352 355 353 351 357 5 3 1 5 11 20 33 43 45 43 42 44 47 55
239 239 240 240 239 237 235 234 233 234 236 237 239 242 246 247 246 245 246 248 250 249 247 248 249 249 249 249 249 249 251 253 254 254 256 258 260 263 265 268 271 274 275 278 281 283 283 285 287 287 290 294 294 295 296 297 300 301 297 302 313 319 323 330 335 338 341 346 350 351 354 354 350 351 0 3 0 3 8 14 25 40 49 48 47 49 48 48
237 239 240 241 240 237 234 232 232 233 235 237 241 244 246 247 247 246 246 247 248 247 245 243 244 245 248 250 251 249 249 249 251 252 255 258 260 261 263 266 269 271 273 276 279 281 281 283 284 285 287 291 292 292 291 294 299 300 293 295 303 310 316 324 330 335 337 340 347 352 353 353 350 346 353 1 360 0 6 11 17 30 44 50 50 51 51 49
Height
5886 5885 5884 5883 5882 5880 5878 5877 5877 5876 5876 5875 5873 5872 5870 5868 5866 5865 5863 5862 5861 5860 5858 5857 5856 5854 5852 5851 5849 5848 5845 5843 5841 5839 5838 5836 5835 5833 5832 5830 5828 5826 5824 5822 5820 5818 5816 5813 5811 5809 5807 5805 5803 5801 5799 5798 5796 5795 5793 5791 5790 5789 5787 5786 5785 5784 5783 5782 5781 5780 5780 5779 5778 5777 5776 5776 5775 5775 5775 5775 5775 5776 5777 5778 5779 5780 5781 5781
5884 5884 5883 5882 5881 5880 5878 5876 5876 5875 5875 5874 5872 5871 5869 5867 5866 5864 5862 5861 5860 5859 5858 5856 5855 5853 5852 5850 5848 5847 5845 5842 5840 5839 5837 5835 5834 5832 5831 5830 5828 5826 5824 5822 5820 5818 5816 5813 5811 5809 5807 5805 5802 5800 5798 5796 5795 5793 5791 5789 5788 5787 5786 5785 5784 5783 5782 5781 5779 5778 5777 5776 5775 5775 5774 5773 5772 5772 5772 5772 5771 5772 5772 5772 5773 5774 5776 5777
5883 5882 5882 5881 5880 5879 5877 5876 5875 5874 5874 5873 5872 5870 5868 5867 5865 5863 5861 5860 5859 5858 5857 5855 5854 5853 5851 5849 5848 5846 5844 5842 5840 5838 5836 5834 5833 5831 5830 5829 5827 5825 5823 5821 5819 5818 5815 5813 5811 5808 5806 5804 5802 5800 5797 5795 5793 5792 5790 5788 5786 5785 5784 5783 5782 5781 5780 5779 5778 5776 5775 5774 5773 5772 5771 5770 5770 5770 5769 5769 5767 5767 5767 5766 5767 5769 5770 5771
5881 5881 5880 5880 5879 5878 5876 5875 5874 5873 5872 5872 5871 5869 5868 5866 5864 5862 5860 5859 5858 5857 5856 5855 5853 5852 5850 5848 5847 5845 5843 5841 5839 5837 5835 5834 5832 5830 5829 5828 5826 5824 5822 5820 5818 5817 5815 5812 5810 5808 5805 5803 5801 5799 5796 5794 5792 5790 5789 5787 5785 5783 5782 5781 5780 5779 5778 5777 5776 5774 5773 5771 5770 5769 5768 5767 5768 5767 5765 5764 5763 5762 5762 5762 5762 5763 5764 5765
5880 5879 5879 5878 5877 5877 5875 5874 5873 5872 5871 5870 5870 5868 5867 5865 5863 5861 5859 5858 5857 5856 5855 5853 5852 5851 5849 5848 5846 5844 5842 5840 5838 5836 5834 5833 5831 5829 5828 5827 5825 5823 5821 5819 5817 5815 5813 5811 5809 5807 5804 5802 5800 5798 5795 5793 5791 5789 5787 5785 5783 5782 5780 5778 5777 5776 5775 5774 5773 5772 5770 5769 5767 5766 5765 5764 5765 5764 5761 5760 5760 5760 5759 5759 5759 5760 5760 5760
5878 5878 5877 5877 5876 5875 5874 5873 5871 5871 5870 5869 5868 5867 5866 5864 5862 5860 5858 5857 5856 5855 5853 5852 5851 5849 5848 5847 5845 5843 5841 5839 5837 5835 5834 5832 5830 5828 5827 5825 5824 5822 5820 5818 5817 5815 5813 5810 5808 5806 5803 5801 5799 5797 5795 5792 5790 5788 5786 5784 5782 5780 5778 5777 5775 5774 5773 5771 5770 5769 5767 5766 5765 5763 5762 5761 5760 5761 5759 5757 5756 5756 5756 5756 5756 5756 5756 5756
5876 5876 5875 5875 5874 5874 5873 5871 5870 5869 5868 5868 5867 5866 5864 5863 5861 5859 5857 5856 5854 5853 5852 5851 5850 5848 5847 5845 5844 5843 5840 5838 5836 5834 5833 5831 5829 5827 5826 5824 5823 5821 5819 5817 5816 5814 5812 5810 5808 5805 5803 5800 5798 5796 5794 5791 5789 5787 5784 5782 5781 5779 5777 5775 5773 5772 5770 5769 5768 5767 5765 5762 5761 5761 5759 5757 5756 5757 5756 5754 5753 5752 5751 5751 5752 5751 5751 5751
5874 5874 5874 5873 5872 5872 5871 5870 5869 5868 5867 5866 5865 5864 5863 5862 5860 5858 5856 5855 5853 5852 5851 5850 5848 5847 5846 5844 5843 5841 5839 5837 5835 5833 5832 5830 5828 5826 5825 5823 5822 5820 5818 5816 5814 5813 5811 5809 5807 5804 5802 5800 5797 5794 5792 5790 5789 5787 5784 5781 5779 5777 5774 5772 5770 5769 5768 5766 5765 5764 5762 5759 5757 5757 5756 5754 5753 5752 5752 5751 5749 5748 5747 5746 5746 5745 5746 5746
5872 5872 5872 5871 5871 5870 5869 5868 5867 5866 5865 5864 5864 5863 5862 5860 5858 5857 5855 5853 5852 5850 5849 5848 5847 5846 5844 5843 5842 5840 5838 5836 5834 5832 5831 5829 5827 5825 5824 5822 5820 5819 5817 5815 5813 5811 5809 5808 5806 5803 5801 5798 5796 5793 5791 5789 5787 5786 5783 5780 5778 5775 5772 5770 5767 5765 5764 5762 5761 5761 5759 5756 5753 5753 5753 5750 5749 5748 5747 5746 5745 5744 5743 5741 5741 5740 5740 5741
5870 5870 5870 5869 5869 5868 5868 5867 5865 5864 5863 5862 5862 5861 5860 5859 5857 5855 5854 5852 5851 5849 5848 5847 5845 5844 5843 5842 5840 5839 5837 5835 5833 5831 5830 5828 5826 5824 5823 5821 5819 5817 5816 5814 5812 5810 5808 5807 5805 5802 5800 5797 5795 5792 5790 5788 5786 5784 5781 5778 5776 5773 5770 5767 5765 5762 5760 5758 5756 5756 5757 5754 5749 5749 5748 5746 5745 5745 5743 5742 5740 5739 5738 5737 5736 5735 5735 5735
5868 5868 5868 5867 5866 5866 5866 5865 5863 5862 5861 5860 5860 5859 5859 5857 5856 5854 5852 5851 5850 5848 5847 5845 5844 5843 5842 5840 5839 5838 5836 5834 5832 5830 5828 5827 5825 5823 5822 5820 5818 5816 5814 5812 5811 5809 5807 5805 5803 5801 5799 5796 5794 5791 5789 5786 5784 5782 5779 5776 5774 5771 5768 5765 5762 5759 5756 5753 5751 5750 5753 5752 5746 5744 5743 5741 5741 5740 5739 5737 5735 5734 5733 5732 5730 5730 5729 5729
5865 5866 5866 5865 5864 5864 5863 5862 5861 5860 5859 5858 5858 5858 5857 5856 5854 5852 5851 5849 5848 5847 5845 5844 5843 5842 5840 5839 5837 5836 5834 5832 5830 5829 5827 5825 5824 5822 5820 5819 5817 5815 5813 5811 5809 5807 5806 5804 5802 5800 5797 5795 5792 5790 5787 5785 5782 5780 5778 5774 5771 5768 5764 5761 5758 5756 5753 5750 5747 5745 5748 5749 5743 5740 5737 5735 5736 5735 5734 5733 5730 5728 5726 5725 5724 5724 5724 5723
5863 5863 5863 5863 5862 5862 5861 5860 5859 5858 5857 5856 5856 5856 5855 5854 5853 5851 5849 5848 5847 5845 5844 5843 5842 5840 5839 5837 5836 5835 5833 5831 5829 5827 5826 5824 5822 5821 5819 5817 5815 5814 5812 5810 5808 5806 5804 5803 5801 5799 5796 5793 5791 5788 5786 5783 5781 5778 5776 5773 5770 5767 5762 5759 5756 5754 5750 5747 5744 5741 5743 5745 5740 5736 5733 5731 5730 5730 5729 5727 5724 5721 5719 5718 5717 5716 5717 5717
5860 5860 5860 5860 5860 5859 5859 5858 5857 5856 5855 5854 5854 5853 5853 5852 5851 5850 5848 5846 5845 5844 5843 5842 5840 5839 5838 5836 5834 5833 5831 5829 5827 5826 5824 5823 5821 5819 5817 5816 5814 5812 5810 5808 5806 5804 5803 5801 5800 5798 5795 5792 5789 5787 5784 5782 5779 5777 5775 5772 5769 5766 5762 5758 5755 5752 5749 5745 5742 5738 5738 5740 5736 5732 5729 5727 5725 5724 5722 5720 5717 5715 5712 5710 5709 5708 5708 5708
5858 5858 5857 5857 5857 5857 5857 5856 5855 5854 5853 5852 5852 5851 5851 5850 5849 5848 5847 5845 5844 5842 5841 5840 5839 5838 5836 5835 5833 5831 5829 5828 5826 5824 5823 5821 5820 5818 5816 5814 5812 5810 5808 5807 5805 5803 5801 5800 5798 5796 5794 5791 5788 5785 5782 5780 5778 5775 5773 5770 5766 5764 5760 5756 5752 5749 5746 5743 5739 5736 5735 5735 5731 5727 5725 5722 5719 5716 5715 5712 5709 5707 5704 5702 5700 5698 5698 5698
5855 5855 5855 5855 5855 5854 5854 5854 5853 5852 5851 5850 5849 5849 5849 5848 5847 5847 5845 5844 5842 5841 5839 5839 5838 5836 5835 5833 5832 5830 5828 5826 5824 5823 5821 5819 5818 5817 5815 5813 5811 5809 5807 5805 5803 5801 5799 5798 5796 5795 5792 5789 5786 5783 5780 5778 5776 5772 5770 5767 5764 5761 5758 5754 5750 5746 5743 5741 5737 5733 5731 5729 5726 5723 5720 5715 5712 5708 5706 5703 5699 5696 5693 5691 5689 5688 5687 5687
5852 5852 5852 5852 5852 5852 5851 5851 5850 5850 5849 5848 5847 5847 5847 5846 5846 5845 5843 5842 5840 5839 5838 5837 5836 5835 5833 5832 5830 5828 5826 5824 5823 5821 5819 5818 5816 5814 5813 5811 5809 5807 5805 5803 5802 5799 5798 5796 5795 5793 5790 5787 5785 5782 5779 5776 5774 5771 5767 5765 5762 5758 5754 5751 5747 5743 5740 5738 5734 5730 5726 5722 5719 5717 5714 5709 5705 5701 5697 5693 5689 5686 5682 5679 5677 5675 5675 5676
5849 5849 5849 5849 5849 5849 5848 5848 5848 5847 5846 5845 5845 5845 5844 5844 5843 5843 5842 5840 5839 5837 5836 5835 5834 5833 5832 5830 5829 5827 5825 5823 5821 5819 5818 5816 5814 5812 5811 5809 5807 5805 5803 5802 5800 5797 5796 5794 5792 5790 5788 5785 5783 5780 5777 5774 5771 5769 5765 5762 5760 5757 5751 5747 5743 5739 5736 5734 5730 5725 5722 5717 5714 5711 5706 5702 5698 5694 5689 5685 5682 5678 5674 5669 5665 5663 5662 5663
5845 5845 5846 5846 5846 5846 5845 5845 5845 5845 5844 5843 5843 5842 5842 5841 5841 5840 5839 5838 5837 5835 5834 5833 5832 5831 5830 5828 5827 5825 5823 5821 5819 5818 5816 5814 5812 5811 5809 5807 5806 5804 5802 5800 5798 5796 5794 5792 5790 5788 5786 5783 5781 5778 5775 5771 5768 5765 5762 5759 5756 5754 5749 5743 5738 5734 5732 5731 5726 5721 5718 5713 5709 5705 5699 5695 5691 5687 5683 5679 5675 5671 5667 5661 5656 5653 5651 5651
5842 5842 5842 5842 5843 5842 5842 5842 5842 5842 5841 5840 5840 5839 5839 5839 5838 5838 5837 5836 5835 5833 5832 5831 5830 5830 5828 5827 5825 5823 5821 5819 5818 5816 5814 5813 5811 5809 5807 5805 5804 5802 5800 5798 5796 5794 5791 5789 5788 5786 5784 5781 5778 5776 5773 5769 5765 5762 5759 5756 5752 5749 5746 5740 5735 5731 5727 5726 5723 5718 5713 5707 5703 5699 5693 5689 5686 5681 5678 5673 5669 5665 5660 5655 5649 5646 5644 5642
5838 5838 5839 5839 5839 5839 5839 5839 5839 5839 5838 5838 5837 5837 5836 5836 5835 5835 5834 5833 5833 5831 5830 5829 5828 5828 5827 5825 5823 5821 5819 5818 5816 5814 5812 5811 5809 5808 5806 5803 5802 5800 5798 5796 5794 5792 5789 5787 5786 5784 5781 5779 5776 5774 5771 5767 5763 5760 5757 5754 5750 5745 5743 5738 5732 5727 5723 5722 5719 5714 5709 5702 5696 5693 5688 5684 5680 5677 5673 5669 5664 5660 5654 5649 5644 5641 5639 5637
5834 5834 5835 5836 5836 5836 5835 5835 5836 5836 5835 5835 5834 5834 5833 5833 5832 5831 5831 5831 5830 5829 5828 5826 5826 5826 5825 5823 5821 5819 5817 5816 5814 5813 5811 5809 5807 5806 5804 5802 5800 5798 5796 5794 5792 5790 5787 5785 5784 5782 5780 5777 5774 5771 5769 5765 5761 5758 5755 5751 5747 5742 5739 5737 5732 5726 5720 5717 5715 5711 5706 5698 5691 5687 5683 5680 5676 5672 5669 5664 5658 5654 5650 5645 5640 5637 5635 5634
5830 5830 5831 5832 5832 5832 5832 5832 5832 5832 5832 5831 5831 5831 5830 5830 5829 5828 5828 5828 5828 5827 5825 5824 5824 5824 5823 5821 5819 5817 5815 5814 5812 5811 5809 5807 5805 5804 5802 5800 5798 5796 5794 5792 5790 5788 5785 5783 5782 5780 5778 5775 5772 5769 5766 5763 5759 5755 5752 5748 5744 5739 5734 5732 5729 5725 5717 5712 5710 5706 5702 5695 5687 5682 5680 5676 5672 5668 5664 5660 5654 5649 5646 5642 5638 5634 5631 5630
5825 5826 5826 5828 5828 5828 5828 5828 5828 5829 5829 5828 5828 5828 5827 5827 5826 5825 5825 5825 5826 5825 5823 5822 5822 5822 5821 5819 5817 5815 5814 5812 5810 5809 5807 5805 5804 5802 5800 5799 5796 5794 5792 5790 5788 5786 5784 5782 5780 5778 5776 5773 5770 5767 5764 5761 5757 5753 5749 5745 5741 5737 5731 5727 5724 5721 5716 5710 5706 5703 5700 5694 5685 5680 5677 5673 5668 5665 5661 5657 5653 5647 5641 5638 5635 5631 5628 5627
5820 5821 5822 5823 5823 5824 5824 5824 5825 5825 5825 5825 5825 5825 5824 5824 5823 5822 5821 5821 5823 5824 5821 5819 5820 5819 5818 5817 5815 5814 5812 5810 5809 5807 5805 5803 5802 5800 5799 5797 5795 5793 5791 5789 5786 5784 5782 5780 5779 5777 5774 5771 5768 5765 5762 5759 5756 5752 5748 5744 5739 5735 5731 5725 5721 5717 5713 5708 5703 5698 5695 5692 5684 5676 5674 5671 5666 5663 5659 5655 5651 5645 5639 5634 5631 5629 5626 5624
5815 5816 5817 5818 5819 5820 5820 5820 5821 5821 5821 5821 5821 5821 5821 5821 5820 5819 5818 5817 5819 5822 5819 5817 5817 5816 5816 5815 5813 5811 5810 5808 5807 5805 5803 5802 5800 5799 5797 5795 5793 5791 5789 5787 5784 5782 5780 5778 5777 5775 5772 5770 5766 5763 5760 5756 5753 5750 5747 5743 5738 5734 5729 5724 5719 5713 5709 5705 5700 5694 5689 5688 5684 5675 5670 5669 5665 5660 5656 5652 5648 5643 5637 5632 5629 5626 5623 5621
5810 5811 5812 5813 5814 5815 5816 5817 5816 5816 5817 5818 5817 5817 5817 5817 5816 5816 5815 5812 5816 5819 5817 5815 5815 5814 5814 5813 5811 5810 5808 5807 5805 5803 5801 5800 5798 5797 5795 5794 5792 5790 5787 5785 5783 5780 5778 5776 5774 5773 5770 5768 5764 5761 5758 5754 5751 5748 5744 5741 5737 5732 5728 5723 5717 5712 5707 5702 5697 5692 5686 5683 5680 5673 5668 5666 5662 5658 5654 5650 5645 5641 5636 5631 5626 5623 5620 5617
5805 5806 5807 5808 5809 5811 5812 5812 5812 5812 5813 5814 5814 5814 5814 5813 5813 5812 5811 5809 5812 5816 5814 5813 5812 5811 5811 5811 5809 5808 5806 5805 5803 5802 5800 5798 5797 5795 5794 5792 5790 5788 5786 5783 5780 5778 5776 5774 5772 5771 5769 5766 5762 5759 5756 5753 5749 5746 5742 5739 5735 5731 5726 5721 5716 5711 5706 5700 5695 5690 5685 5681 5678 5671 5666 5663 5659 5656 5652 5648 5644 5639 5635 5630 5624 5619 5616 5614
5799 5800 5802 5803 5805 5806 5807 5808 5808 5808 5809 5810 5810 5810 5810 5810 5809 5808 5806 5806 5810 5812 5811 5811 5809 5808 5809 5808 5807 5806 5804 5803 5801 5800 5798 5796 5795 5793 5791 5790 5788 5787 5785 5782 5778 5776 5774 5772 5770 5769 5767 5764 5760 5757 5754 5751 5748 5744 5741 5737 5733 5729 5725 5720 5715 5710 5704 5698 5694 5689 5682 5678 5676 5671 5666 5662 5658 5653 5649 5645 5641 5636 5632 5628 5622 5617 5612 5610
5793 5795 5797 5798 5799 5801 5803 5804 5804 5804 5805 5806 5806 5806 5805 5805 5805 5802 5801 5804 5808 5808 5807 5808 5807 5806 5806 5805 5805 5803 5802 5801 5799 5797 5796 5794 5793 5791 5789 5788 5786 5785 5783 5781 5777 5774 5771 5770 5768 5767 5765 5762 5759 5756 5753 5750 5746 5743 5740 5736 5732 5728 5724 5720 5715 5710 5704 5697 5692 5687 5681 5676 5673 5669 5664 5659 5655 5650 5646 5642 5638 5634 5629 5625 5619 5614 5609 5606
5787 5789 5791 5793 5794 5795 5797 5798 5799 5800 5800 5801 5802 5801 5801 5800 5798 5795 5797 5804 5806 5803 5804 5805 5804 5803 5803 5803 5802 5801 5799 5798 5797 5795 5794 5792 5791 5789 5787 5785 5784 5783 5781 5780 5777 5773 5769 5767 5766 5764 5763 5760 5757 5754 5751 5748 5744 5741 5738 5734 5731 5727 5723 5719 5714 5709 5703 5697 5690 5685 5680 5676 5671 5667 5662 5657 5652 5648 5643 5639 5636 5632 5627 5622 5616 5610 5605 5602
5781 5783 5785 5787 5788 5790 5792 5793 5795 5795 5795 5797 5797 5796 5796 5794 5790 5790 5798 5803 5801 5799 5801 5801 5800 5800 5800 5800 5800 5798 5797 5796 5795 5793 5791 5790 5789 5787 5785 5783 5781 5780 5779 5778 5776 5772 5768 5765 5764 5763 5761 5759 5756 5754 5750 5746 5743 5739 5735 5732 5728 5725 5721 5717 5713 5708 5703 5697 5690 5684 5679 5675 5671 5665 5660 5656 5651 5646 5641 5636 5632 5627 5623 5618 5612 5606 5602 5598
5774 5777 5779 5781 5783 5784 5786 5788 5789 5790 5790 5792 5791 5791 5791 5785 5783 5790 5798 5799 5797 5796 5797 5797 5796 5796 5796 5797 5797 5796 5794 5793 5792 5791 5789 5788 5787 5785 5783 5781 5779 5777 5776 5775 5774 5771 5767 5764 5762 5761 5760 5758 5755 5752 5749 5745 5741 5737 5734 5730 5726 5721 5717 5713 5709 5705 5702 5698 5691 5684 5678 5674 5670 5665 5659 5655 5650 5644 5638 5633 5628 5622 5616 5612 5607 5602 5597 5594
5768 5770 5772 5775 5777 5778 5780 5782 5783 5784 5785 5786 5786 5786 5782 5777 5781 5791 5795 5794 5794 5793 5792 5792 5792 5793 5793 5793 5794 5793 5791 5791 5790 5788 5787 5786 5785 5783 5781 5779 5778 5775 5774 5772 5771 5769 5766 5762 5760 5758 5757 5756 5753 5751 5747 5743 5740 5736 5732 5729 5725 5720 5715 5711 5706 5702 5699 5697 5691 5685 5678 5673 5669 5664 5659 5654 5648 5642 5636 5631 5625 5618 5612 5607 5602 5596 5591 5587
5761 5764 5766 5768 5770 5772 5775 5776 5777 5778 5779 5780 5780 5778 5773 5773 5782 5789 5790 5790 5790 5789 5789 5788 5788 5788 5789 5790 5790 5790 5788 5788 5787 5786 5785 5784 5782 5781 5779 5777 5776 5773 5772 5770 5768 5767 5764 5760 5758 5756 5755 5753 5751 5749 5746 5742 5738 5735 5731 5728 5724 5720 5715 5712 5707 5701 5697 5695 5691 5686 5680 5674 5669 5664 5659 5654 5648 5641 5635 5630 5623 5616 5609 5603 5597 5590 5584 5580
5754 5757 5759 5762 5764 5766 5768 5769 5770 5772 5772 5773 5773 5769 5768 5774 5782 5784 5785 5786 5786 5785 5785 5785 5784 5785 5785 5786 5787 5787 5785 5784 5784 5783 5783 5781 5780 5779 5777 5775 5774 5771 5769 5768 5765 5764 5762 5759 5756 5754 5753 5752 5749 5746 5744 5741 5737 5734 5730 5727 5724 5720 5715 5712 5708 5703 5698 5693 5690 5685 5680 5676 5671 5666 5660 5654 5648 5642 5635 5629 5621 5612 5605 5598 5590 5583 5577 5572
5747 5750 5753 5755 5756 5759 5761 5762 5764 5765 5766 5766 5764 5763 5766 5773 5777 5779 5781 5782 5781 5781 5781 5781 5781 5781 5781 5782 5783 5783 5782 5781 5781 5780 5780 5779 5778 5776 5775 5773 5771 5769 5767 5766 5763 5762 5760 5758 5755 5752 5751 5750 5747 5745 5742 5739 5736 5733 5730 5726 5723 5719 5715 5711 5707 5703 5699 5694 5690 5685 5679 5675 5670 5665 5660 5655 5649 5643 5635 5627 5619 5610 5602 5594 5586 5578 5570 5564
5739 5742 5745 5747 5748 5751 5753 5755 5757 5758 5759 5758 5757 5759 5763 5768 5773 5776 5777 5777 5777 5777 5776 5777 5778 5777 5778 5779 5779 5780 5779 5778 5778 5777 5776 5776 5775 5773 5772 5771 5769 5767 5765 5763 5761 5760 5758 5757 5754 5751 5749 5748 5746 5743 5741 5738 5735 5732 5729 5725 5722 5718 5714 5710 5705 5701 5698 5693 5690 5685 5679 5674 5669 5664 5659 5653 5648 5641 5633 5626 5617 5609 5601 5592 5582 5572 5564 5557
5731 5733 5736 5738 5740 5743 5745 5747 5750 5752 5751 5749 5751 5756 5759 5764 5770 5772 5772 5772 5772 5772 5772 5774 5774 5773 5774 5775 5775 5776 5775 5775 5775 5774 5773 5773 5772 5771 5769 5768 5767 5765 5763 5761 5759 5758 5756 5754 5753 5750 5747 5747 5745 5742 5739 5737 5734 5731 5728 5724 5721 5717 5714 5710 5705 5701 5696 5692 5688 5684 5679 5675 5669 5663 5657 5650 5644 5638 5631 5624 5615 5607 5598 5590 5579 5568 5559 5554
5722 5724 5727 5729 5731 5735 5737 5739 5742 5743 5743 5744 5749 5752 5755 5761 5766 5766 5767 5767 5766 5767 5768 5769 5769 5769 5770 5771 5771 5772 5772 5771 5771 5770 5770 5770 5769 5767 5766 5766 5764 5763 5761 5759 5757 5756 5754 5753 5751 5748 5746 5745 5743 5741 5738 5735 5733 5730 5727 5723 5720 5717 5714 5711 5707 5702 5696 5691 5687 5682 5678 5675 5670 5664 5657 5650 5644 5637 5630 5622 5615 5607 5599 5589 5578 5567 5559 5555
5712 5714 5718 5720 5722 5726 5729 5731 5734 5736 5738 5740 5743 5746 5750 5756 5760 5761 5761 5761 5761 5762 5763 5764 5765 5765 5766 5766 5767 5768 5768 5767 5767 5767 5766 5767 5766 5764 5763 5762 5761 5760 5759 5757 5755 5753 5752 5751 5749 5747 5744 5743 5742 5739 5736 5734 5732 5729 5726 5723 5720 5717 5714 5711 5708 5703 5697 5692 5687 5683 5678 5674 5671 5666 5659 5653 5646 5639 5632 5624 5617 5609 5601 5590 5579 5568 5561 5559
5701 5705 5710 5712 5713 5717 5721 5724 5728 5730 5731 5733 5737 5742 5746 5750 5753 5755 5756 5756 5756 5757 5758 5759 5760 5761 5761 5762 5763 5764 5763 5763 5764 5764 5763 5764 5763 5761 5759 5759 5758 5757 5756 5755 5753 5751 5749 5748 5747 5745 5743 5741 5740 5738 5735 5733 5731 5728 5726 5723 5720 5717 5713 5710 5707 5703 5699 5693 5688 5685 5680 5675 5672 5667 5661 5656 5649 5642 5634 5627 5619 5612 5604 5594 5582 5571 5566 5563
5693 5697 5701 5702 5704 5709 5712 5715 5720 5722 5723 5728 5733 5737 5740 5742 5746 5749 5750 5751 5752 5752 5752 5753 5755 5756 5756 5757 5758 5759 5759 5759 5760 5760 5760 5760 5760 5758 5756 5756 5755 5754 5753 5752 5751 5749 5747 5745 5744 5743 5742 5740 5738 5737 5734 5732 5729 5727 5726 5723 5720 5716 5713 5710 5707 5703 5699 5695 5690 5686 5683 5678 5674 5669 5663 5657 5651 5644 5637 5630 5623 5616 5608 5598 5586 5576 5571 5568
5684 5687 5690 5692 5695 5699 5702 5707 5713 5716 5719 5724 5727 5730 5733 5736 5740 5743 5744 5746 5747 5746 5746 5748 5750 5751 5751 5752 5753 5754 5755 5755 5756 5756 5756 5756 5756 5754 5753 5753 5753 5751 5750 5749 5748 5747 5745 5743 5741 5740 5740 5739 5737 5736 5734 5731 5729 5727 5725 5723 5720 5716 5713 5710 5707 5704 5700 5696 5691 5687 5684 5681 5676 5671 5665 5659 5653 5647 5640 5633 5627 5620 5613 5604 5593 5583 5577 5574
5673 5675 5677 5682 5686 5689 5694 5701 5706 5709 5713 5717 5720 5724 5727 5729 5734 5737 5739 5740 5741 5740 5741 5742 5745 5746 5746 5747 5748 5750 5752 5752 5751 5751 5752 5753 5753 5751 5749 5750 5749 5749 5748 5746 5745 5744 5743 5741 5739 5737 5736 5736 5735 5734 5733 5731 5728 5726 5724 5722 5719 5716 5713 5710 5707 5704 5701 5697 5692 5688 5686 5683 5679 5674 5669 5664 5659 5652 5644 5638 5632 5625 5618 5610 5600 5591 5585 5581
5662 5662 5666 5672 5676 5680 5686 5693 5697 5701 5706 5709 5711 5716 5719 5723 5728 5731 5732 5733 5734 5734 5736 5738 5739 5740 5740 5742 5745 5747 5748 5747 5746 5746 5748 5749 5748 5747 5746 5746 5746 5746 5745 5744 5742 5741 5741 5740 5737 5735 5733 5732 5731 5731 5731 5730 5727 5725 5723 5721 5718 5716 5713 5709 5707 5705 5701 5698 5694 5690 5687 5684 5681 5678 5673 5668 5663 5656 5649 5642 5637 5631 5624 5617 5610 5601 5594 5590
5652 5652 5658 5665 5668 5672 5679 5685 5690 5694 5699 5700 5703 5710 5716 5719 5723 5724 5724 5726 5727 5729 5731 5732 5733 5734 5736 5739 5741 5742 5742 5742 5741 5742 5743 5745 5743 5742 5743 5743 5743 5743 5742 5741 5740 5738 5738 5738 5736 5733 5732 5730 5729 5728 5728 5727 5726 5724 5721 5720 5717 5715 5713 5710 5707 5705 5701 5698 5695 5692 5689 5686 5682 5679 5675 5670 5665 5659 5652 5647 5641 5636 5630 5625 5619 5612 5605 5601
5643 5646 5654 5658 5660 5665 5673 5680 5686 5689 5692 5695 5700 5706 5710 5712 5714 5715 5717 5720 5722 5724 5725 5726 5728 5730 5732 5735 5736 5736 5736 5736 5736 5738 5740 5739 5737 5737 5739 5740 5740 5740 5739 5738 5737 5735 5735 5735 5734 5731 5730 5728 5726 5726 5725 5725 5724 5723 5720 5719 5717 5714 5712 5710 5707 5705 5702 5699 5696 5693 5690 5687 5684 5680 5677 5672 5668 5662 5656 5651 5646 5641 5637 5632 5627 5622 5616 5613
5637 5641 5647 5649 5651 5658 5666 5673 5677 5679 5683 5688 5691 5697 5701 5704 5706 5708 5711 5713 5715 5718 5720 5721 5724 5726 5727 5730 5731 5730 5730 5731 5732 5734 5734 5732 5731 5733 5735 5736 5736 5736 5735 5734 5734 5732 5731 5732 5731 5729 5728 5727 5724 5723 5723 5723 5722 5722 5719 5717 5716 5714 5712 5709 5707 5705 5702 5699 5696 5694 5691 5688 5685 5682 5679 5675 5670 5665 5660 5655 5650 5647 5643 5638 5635 5631 5627 5623
5632 5637 5641 5641 5643 5651 5658 5663 5665 5668 5672 5676 5680 5688 5694 5695 5697 5700 5704 5707 5710 5714 5716 5717 5720 5722 5722 5724 5724 5723 5725 5727 5728 5728 5727 5725 5727 5730 5731 5731 5731 5732 5732 5731 5730 5730 5728 5728 5728 5726 5726 5726 5723 5720 5720 5720 5721 5721 5718 5716 5714 5712 5711 5709 5707 5705 5703 5700 5697 5694 5692 5690 5686 5683 5681 5677 5673 5669 5664 5660 5655 5652 5648 5644 5640 5638 5635 5632
5629 5633 5634 5634 5636 5643 5648 5653 5656 5659 5662 5667 5675 5684 5686 5686 5691 5695 5698 5702 5706 5708 5710 5712 5714 5714 5714 5715 5716 5717 5720 5722 5721 5721 5720 5720 5723 5726 5726 5726 5727 5728 5728 5728 5727 5726 5725 5725 5725 5723 5723 5724 5722 5718 5717 5717 5718 5719 5717 5715 5713 5711 5710 5709 5707 5705 5703 5700 5698 5695 5693 5691 5688 5685 5682 5680 5676 5672 5668 5664 5660 5656 5653 5650 5646 5643 5641 5639
5624 5626 5628 5628 5629 5631 5636 5643 5646 5647 5653 5664 5672 5677 5679 5683 5688 5689 5691 5696 5699 5700 5703 5705 5705 5706 5707 5709 5712 5713 5714 5715 5714 5714 5715 5716 5719 5721 5721 5722 5723 5723 5724 5724 5724 5723 5721 5721 5721 5719 5719 5721 5720 5717 5715 5715 5716 5717 5715 5714 5712 5711 5709 5708 5707 5704 5702 5700 5698 5695 5693 5691 5689 5686 5684 5681 5678 5675 5671 5668 5664 5661 5658 5655 5652 5649 5647 5645